WRD283 GCLP-LPPR

Flight info

Callsign WRD283
Flight time N/A
Altitude 32000
Route BIMB7ABIMBO DCT NARTA DCT BUSEN DCT ABLEG ABLE6C
Aircraft B77L/H-SDE1E2E3FGHIJ2J3J4J5M1RWXY/LB1D1

Departure

Time N/A
Airport Gran Canaria Airport (GCLP)

Arrival

Time 2026-05-03 21:48
Airport Francisco de Sá Carneiro Airport (LPPR)
Time Latitude Longitude Altitude Speed Heading
2026-05-03 20:15 30.67342 -15.89427 35121 ft 480 kts 344°
2026-05-03 20:15 30.73943 -15.90643 35123 ft 480 kts 344°
2026-05-03 20:16 30.80539 -15.91860 35124 ft 480 kts 344°
2026-05-03 20:16 30.87137 -15.93079 35125 ft 479 kts 344°
2026-05-03 20:17 30.93724 -15.94298 35129 ft 479 kts 344°
2026-05-03 20:17 31.00317 -15.95519 35121 ft 479 kts 344°
2026-05-03 20:18 31.06902 -15.96741 35122 ft 479 kts 344°
2026-05-03 20:18 31.13450 -15.97957 35122 ft 479 kts 344°
2026-05-03 20:19 31.20034 -15.99182 35123 ft 479 kts 344°
2026-05-03 20:19 31.26616 -16.00408 35125 ft 479 kts 344°
2026-05-03 20:20 31.33206 -16.01638 35126 ft 479 kts 344°
2026-05-03 20:20 31.39817 -16.02728 35100 ft 485 kts 354°
2026-05-03 20:20 31.43217 -16.02241 35128 ft 499 kts 10°
2026-05-03 20:21 31.46440 -16.00609 35133 ft 510 kts 26°
2026-05-03 20:21 31.52501 -15.96193 35131 ft 515 kts 27°
2026-05-03 20:22 31.58593 -15.91725 35117 ft 518 kts 27°
2026-05-03 20:22 31.64723 -15.87326 35116 ft 520 kts 26°
2026-05-03 20:23 31.70925 -15.82931 35118 ft 522 kts 26°
2026-05-03 20:23 31.77150 -15.78524 35124 ft 522 kts 26°
2026-05-03 20:24 31.83374 -15.74105 35115 ft 522 kts 26°
2026-05-03 20:24 31.89594 -15.69678 35118 ft 521 kts 26°
2026-05-03 20:25 31.95800 -15.65252 35117 ft 520 kts 26°
2026-05-03 20:25 32.01984 -15.60835 35118 ft 519 kts 26°
2026-05-03 20:26 32.08115 -15.56450 35115 ft 518 kts 26°
2026-05-03 20:26 32.14279 -15.52034 35114 ft 518 kts 26°
2026-05-03 20:27 32.20436 -15.47616 35115 ft 518 kts 26°
2026-05-03 20:27 32.26593 -15.43192 35118 ft 518 kts 26°
2026-05-03 20:28 32.32752 -15.38759 35122 ft 519 kts 26°
2026-05-03 20:28 32.38916 -15.34315 35116 ft 519 kts 26°
2026-05-03 20:29 32.45087 -15.29858 35126 ft 520 kts 26°
2026-05-03 20:29 32.51263 -15.25390 35121 ft 520 kts 26°
2026-05-03 20:30 32.57414 -15.20934 35121 ft 521 kts 26°
2026-05-03 20:30 32.63600 -15.16444 35121 ft 521 kts 26°
2026-05-03 20:31 32.69796 -15.11940 35120 ft 522 kts 26°
2026-05-03 20:31 32.75986 -15.07433 35121 ft 522 kts 26°
2026-05-03 20:32 32.82172 -15.02921 35118 ft 521 kts 26°
2026-05-03 20:32 32.88357 -14.98403 35112 ft 522 kts 26°
2026-05-03 20:33 32.94560 -14.93866 35139 ft 527 kts 26°
2026-05-03 20:33 33.00827 -14.89279 35121 ft 537 kts 26°
2026-05-03 20:34 33.07228 -14.84580 35120 ft 541 kts 27°
2026-05-03 20:34 33.13639 -14.79859 35123 ft 542 kts 27°
2026-05-03 20:35 33.20055 -14.75129 35121 ft 542 kts 26°
2026-05-03 20:35 33.26475 -14.70390 35125 ft 541 kts 26°
2026-05-03 20:36 33.32878 -14.65655 35121 ft 541 kts 26°
2026-05-03 20:36 33.39271 -14.60920 35119 ft 540 kts 26°
2026-05-03 20:37 33.45619 -14.56211 35125 ft 539 kts 26°
2026-05-03 20:37 33.51988 -14.51477 35126 ft 539 kts 26°
2026-05-03 20:38 33.58366 -14.46729 35127 ft 539 kts 26°
2026-05-03 20:38 33.64732 -14.41980 35130 ft 539 kts 26°
2026-05-03 20:39 33.71101 -14.37222 35133 ft 539 kts 26°
2026-05-03 20:39 33.77474 -14.32452 35134 ft 540 kts 26°
2026-05-03 20:40 33.82787 -14.28468 35134 ft 540 kts 26°
2026-05-03 20:40 33.89176 -14.23671 35136 ft 541 kts 26°
2026-05-03 20:41 33.96602 -14.18084 35138 ft 542 kts 26°
2026-05-03 20:41 34.01959 -14.14046 35139 ft 542 kts 26°
2026-05-03 20:42 34.08338 -14.09230 35140 ft 543 kts 26°
2026-05-03 20:42 34.14698 -14.04419 35138 ft 543 kts 26°
2026-05-03 20:43 34.21101 -13.99567 35141 ft 543 kts 26°
2026-05-03 20:43 34.27497 -13.94712 35142 ft 543 kts 26°
2026-05-03 20:44 34.33893 -13.89842 35145 ft 543 kts 26°
2026-05-03 20:44 34.40297 -13.84963 35140 ft 543 kts 26°
2026-05-03 20:45 34.46686 -13.80085 35144 ft 543 kts 26°
2026-05-03 20:45 34.53076 -13.75197 35140 ft 543 kts 26°
2026-05-03 20:46 34.59466 -13.70309 35127 ft 543 kts 26°
2026-05-03 20:46 34.65849 -13.65414 35133 ft 542 kts 26°
2026-05-03 20:47 34.72223 -13.60511 35144 ft 542 kts 26°
2026-05-03 20:47 34.78588 -13.55603 35144 ft 541 kts 26°
2026-05-03 20:48 34.84946 -13.50693 35144 ft 541 kts 26°
2026-05-03 20:48 34.91264 -13.45814 35149 ft 540 kts 26°
2026-05-03 20:49 34.97612 -13.40899 35149 ft 540 kts 26°
2026-05-03 20:49 35.03939 -13.35988 35143 ft 539 kts 27°
2026-05-03 20:50 35.10263 -13.31070 35144 ft 538 kts 27°
2026-05-03 20:50 35.16582 -13.26147 35143 ft 538 kts 27°
2026-05-03 20:51 35.22893 -13.21221 35144 ft 538 kts 27°
2026-05-03 20:51 35.29188 -13.16295 35150 ft 537 kts 27°
2026-05-03 20:52 35.35493 -13.11355 35148 ft 537 kts 27°
2026-05-03 20:52 35.41786 -13.06423 35136 ft 537 kts 27°
2026-05-03 20:53 35.48076 -13.01478 35141 ft 537 kts 27°
2026-05-03 20:53 35.54329 -12.96551 35146 ft 538 kts 27°
2026-05-03 20:54 35.60628 -12.91580 35148 ft 538 kts 27°
2026-05-03 20:54 35.70084 -12.84098 35148 ft 539 kts 27°
2026-05-03 20:55 35.76395 -12.79092 35148 ft 540 kts 27°
2026-05-03 20:55 35.82713 -12.74072 35150 ft 540 kts 27°
2026-05-03 20:56 35.89047 -12.69029 35149 ft 541 kts 27°
2026-05-03 20:56 35.95369 -12.63985 35146 ft 541 kts 27°
2026-05-03 20:57 36.01654 -12.58961 35148 ft 541 kts 27°
2026-05-03 20:57 36.07887 -12.53696 35143 ft 546 kts 32°
2026-05-03 20:58 36.13847 -12.47833 35149 ft 547 kts 33°
2026-05-03 20:58 36.19762 -12.41886 35147 ft 548 kts 33°
2026-05-03 20:59 36.25698 -12.35958 35143 ft 548 kts 33°
2026-05-03 20:59 36.31647 -12.30056 35147 ft 548 kts 33°
2026-05-03 21:00 36.36590 -12.25152 35141 ft 548 kts 33°
2026-05-03 21:00 36.43546 -12.18236 35141 ft 548 kts 33°
2026-05-03 21:01 36.49494 -12.12303 35136 ft 548 kts 33°
2026-05-03 21:02 36.61264 -12.00525 35143 ft 548 kts 33°
2026-05-03 21:02 36.67205 -11.94562 35143 ft 548 kts 33°
2026-05-03 21:03 36.73141 -11.88593 35127 ft 549 kts 33°
2026-05-03 21:03 36.79052 -11.82637 35123 ft 548 kts 33°
2026-05-03 21:04 36.84982 -11.76648 35134 ft 548 kts 34°
2026-05-03 21:04 36.90945 -11.70614 35133 ft 548 kts 34°
2026-05-03 21:05 36.96830 -11.64647 35136 ft 548 kts 34°
2026-05-03 21:05 37.02752 -11.58630 35133 ft 548 kts 34°
2026-05-03 21:06 37.08671 -11.52603 35139 ft 548 kts 34°
2026-05-03 21:06 37.14596 -11.46558 35138 ft 549 kts 34°
2026-05-03 21:07 37.20517 -11.40504 35136 ft 549 kts 34°
2026-05-03 21:07 37.26431 -11.34446 35141 ft 549 kts 34°
2026-05-03 21:08 37.32302 -11.28418 35136 ft 549 kts 34°
2026-05-03 21:08 37.38216 -11.22333 35117 ft 549 kts 34°
2026-05-03 21:09 37.44118 -11.16248 35135 ft 549 kts 34°
2026-05-03 21:09 37.50019 -11.10151 35124 ft 549 kts 34°
2026-05-03 21:10 37.55918 -11.04044 35124 ft 549 kts 34°
2026-05-03 21:10 37.61821 -10.97919 35126 ft 549 kts 34°
2026-05-03 21:11 37.67717 -10.91788 35127 ft 550 kts 34°
2026-05-03 21:11 37.73620 -10.85638 35123 ft 550 kts 34°
2026-05-03 21:12 37.79521 -10.79475 35118 ft 550 kts 35°
2026-05-03 21:12 37.85424 -10.73298 35113 ft 551 kts 35°
2026-05-03 21:13 37.91325 -10.67109 35115 ft 551 kts 35°
2026-05-03 21:13 37.97192 -10.60943 35116 ft 551 kts 35°
2026-05-03 21:14 38.03093 -10.54728 35116 ft 551 kts 35°
2026-05-03 21:14 38.08987 -10.48507 35113 ft 551 kts 35°
2026-05-03 21:15 38.14879 -10.42274 35108 ft 551 kts 35°
2026-05-03 21:15 38.20764 -10.36035 35107 ft 551 kts 35°
2026-05-03 21:16 38.26658 -10.29773 35110 ft 551 kts 35°
2026-05-03 21:16 38.32530 -10.23520 35107 ft 551 kts 36°
2026-05-03 21:17 38.37418 -10.18305 35105 ft 551 kts 36°
2026-05-03 21:17 38.44289 -10.10957 35110 ft 551 kts 36°
2026-05-03 21:18 38.50123 -10.04703 35107 ft 551 kts 36°
2026-05-03 21:18 38.56177 -9.98782 35087 ft 545 kts 27°
2026-05-03 21:19 38.62761 -9.94072 35095 ft 540 kts 22°
2026-05-03 21:19 38.69397 -9.89564 35096 ft 540 kts 22°
2026-05-03 21:20 38.76034 -9.84993 35099 ft 541 kts 23°
2026-05-03 21:20 38.82647 -9.80370 35102 ft 541 kts 23°
2026-05-03 21:21 38.89254 -9.75724 35098 ft 541 kts 24°
2026-05-03 21:21 38.95854 -9.71074 35098 ft 541 kts 24°
2026-05-03 21:22 39.02452 -9.66422 35097 ft 541 kts 24°
2026-05-03 21:22 39.09061 -9.61754 35089 ft 541 kts 24°
2026-05-03 21:23 39.15651 -9.57089 35089 ft 541 kts 24°
2026-05-03 21:23 39.22145 -9.52473 35065 ft 521 kts 24°
2026-05-03 21:24 39.25295 -9.50228 34730 ft 515 kts 24°
2026-05-03 21:24 39.28391 -9.48024 34298 ft 511 kts 24°
2026-05-03 21:24 39.31485 -9.45822 33833 ft 507 kts 24°
2026-05-03 21:24 39.34566 -9.43629 33304 ft 503 kts 24°
2026-05-03 21:25 39.37614 -9.41456 32843 ft 498 kts 24°
2026-05-03 21:25 39.40638 -9.39298 32389 ft 494 kts 24°
2026-05-03 21:25 39.43636 -9.37154 31940 ft 490 kts 24°
2026-05-03 21:25 39.46604 -9.35031 31492 ft 485 kts 24°
2026-05-03 21:26 39.49551 -9.32920 31059 ft 481 kts 24°
2026-05-03 21:26 39.52455 -9.30838 30633 ft 478 kts 24°
2026-05-03 21:26 39.55363 -9.28750 30197 ft 474 kts 24°
2026-05-03 21:26 39.58240 -9.26684 29698 ft 471 kts 24°
2026-05-03 21:27 39.61093 -9.24633 29216 ft 467 kts 24°
2026-05-03 21:27 39.63900 -9.22612 28781 ft 462 kts 24°
2026-05-03 21:27 39.66714 -9.20584 28349 ft 458 kts 24°
2026-05-03 21:27 39.69487 -9.18584 27896 ft 454 kts 24°
2026-05-03 21:28 39.72231 -9.16604 27466 ft 450 kts 25°
2026-05-03 21:28 39.74959 -9.14634 27035 ft 447 kts 25°
2026-05-03 21:28 39.77664 -9.12678 26613 ft 443 kts 25°
2026-05-03 21:28 39.80348 -9.10736 26192 ft 440 kts 25°
2026-05-03 21:29 39.83015 -9.08804 25778 ft 437 kts 25°
2026-05-03 21:29 39.85628 -9.06909 25374 ft 434 kts 25°
2026-05-03 21:29 39.88259 -9.05000 24958 ft 432 kts 25°
2026-05-03 21:29 39.90870 -9.03105 24554 ft 429 kts 25°
2026-05-03 21:30 39.93478 -9.01209 24172 ft 426 kts 25°
2026-05-03 21:30 39.96059 -8.99331 23986 ft 427 kts 25°
2026-05-03 21:30 39.98696 -8.97416 23339 ft 438 kts 25°
2026-05-03 21:30 40.01360 -8.95477 22824 ft 437 kts 25°
2026-05-03 21:31 40.04000 -8.93549 22392 ft 433 kts 26°
2026-05-03 21:31 40.06621 -8.91633 21971 ft 429 kts 26°
2026-05-03 21:31 40.09210 -8.89738 21548 ft 425 kts 26°
2026-05-03 21:31 40.11777 -8.87859 21135 ft 421 kts 26°
2026-05-03 21:32 40.14324 -8.85993 20718 ft 418 kts 26°
2026-05-03 21:32 40.16852 -8.84140 20328 ft 414 kts 26°
2026-05-03 21:32 40.19358 -8.82303 19919 ft 411 kts 26°
2026-05-03 21:32 40.21010 -8.81091 19645 ft 409 kts 26°
2026-05-03 21:33 40.23479 -8.79278 19238 ft 406 kts 26°
2026-05-03 21:33 40.25935 -8.77473 18836 ft 404 kts 26°
2026-05-03 21:33 40.28378 -8.75675 18426 ft 401 kts 27°
2026-05-03 21:33 40.30805 -8.73889 17961 ft 398 kts 27°
2026-05-03 21:34 40.33989 -8.71542 17391 ft 394 kts 27°
2026-05-03 21:34 40.35595 -8.70358 17108 ft 392 kts 27°
2026-05-03 21:34 40.37958 -8.68613 16689 ft 388 kts 27°
2026-05-03 21:34 40.40304 -8.66879 16297 ft 384 kts 27°
2026-05-03 21:35 40.42620 -8.65167 15889 ft 380 kts 27°
2026-05-03 21:35 40.44913 -8.63470 15494 ft 377 kts 27°
2026-05-03 21:35 40.47184 -8.61789 15090 ft 373 kts 27°
2026-05-03 21:35 40.49408 -8.60141 14717 ft 370 kts 27°
2026-05-03 21:36 40.51666 -8.58466 14318 ft 366 kts 27°
2026-05-03 21:36 40.53876 -8.56826 13940 ft 363 kts 27°
2026-05-03 21:36 40.56068 -8.55198 13520 ft 360 kts 27°
2026-05-03 21:36 40.58238 -8.53585 13102 ft 357 kts 27°
2026-05-03 21:37 40.60387 -8.51985 12710 ft 353 kts 27°
2026-05-03 21:37 40.62508 -8.50405 12330 ft 349 kts 27°
2026-05-03 21:37 40.64582 -8.48861 11962 ft 345 kts 27°
2026-05-03 21:37 40.66657 -8.47315 11596 ft 341 kts 27°
2026-05-03 21:38 40.68715 -8.45779 11277 ft 335 kts 27°
2026-05-03 21:38 40.70750 -8.44460 11106 ft 314 kts 12°
2026-05-03 21:38 40.72804 -8.44322 10747 ft 286 kts 346°
2026-05-03 21:38 40.74648 -8.45072 10175 ft 271 kts 333°
2026-05-03 21:39 40.76335 -8.46124 9441 ft 266 kts 330°
2026-05-03 21:39 40.77975 -8.47246 8686 ft 268 kts 330°
2026-05-03 21:39 40.79622 -8.48390 8300 ft 267 kts 330°
2026-05-03 21:39 40.81258 -8.49518 7956 ft 264 kts 330°
2026-05-03 21:40 40.82874 -8.50625 7639 ft 259 kts 331°
2026-05-03 21:40 40.84453 -8.51703 7397 ft 253 kts 331°
2026-05-03 21:40 40.86005 -8.52760 7108 ft 248 kts 331°
2026-05-03 21:40 40.87507 -8.53781 6827 ft 243 kts 331°
2026-05-03 21:41 40.89028 -8.54816 6514 ft 245 kts 332°
2026-05-03 21:41 40.90539 -8.55842 6203 ft 250 kts 332°
2026-05-03 21:41 40.92089 -8.56893 5888 ft 252 kts 332°
2026-05-03 21:41 40.93647 -8.57949 5576 ft 250 kts 332°
2026-05-03 21:42 40.95187 -8.58995 5277 ft 247 kts 332°
2026-05-03 21:42 40.96714 -8.60031 4984 ft 247 kts 332°
2026-05-03 21:42 40.98241 -8.61058 4793 ft 241 kts 335°
2026-05-03 21:42 40.99800 -8.61679 4663 ft 230 kts 348°
2026-05-03 21:43 41.01368 -8.62060 4415 ft 231 kts 348°
2026-05-03 21:43 41.02940 -8.62443 4132 ft 227 kts 348°
2026-05-03 21:43 41.04470 -8.62832 3862 ft 220 kts 348°
2026-05-03 21:43 41.05953 -8.63217 3610 ft 212 kts 348°
2026-05-03 21:44 41.07388 -8.63584 3369 ft 209 kts 348°
2026-05-03 21:44 41.08793 -8.63946 3111 ft 201 kts 348°
2026-05-03 21:44 41.10118 -8.64287 3024 ft 190 kts 348°
2026-05-03 21:44 41.11410 -8.64624 2943 ft 190 kts 348°
2026-05-03 21:45 41.12719 -8.64965 2709 ft 191 kts 348°
2026-05-03 21:45 41.14002 -8.65299 2458 ft 184 kts 348°
2026-05-03 21:45 41.15225 -8.65619 2177 ft 171 kts 348°
2026-05-03 21:45 41.16358 -8.65912 1926 ft 162 kts 347°
2026-05-03 21:46 41.17435 -8.66206 1642 ft 155 kts 347°
2026-05-03 21:46 41.18445 -8.66495 1303 ft 140 kts 346°
2026-05-03 21:46 41.19400 -8.66747 1103 ft 141 kts 348°
2026-05-03 21:46 41.20377 -8.66999 958 ft 148 kts 348°
2026-05-03 21:47 41.21405 -8.67249 722 ft 148 kts 348°
2026-05-03 21:47 41.22397 -8.67496 489 ft 145 kts 348°
2026-05-03 21:47 41.23382 -8.67753 271 ft 145 kts 350°
2026-05-03 21:47 41.24309 -8.67993 240 ft 121 kts 349°
2026-05-03 21:48 41.24987 -8.68171 239 ft 77 kts 349°
2026-05-03 21:48 41.25356 -8.68265 238 ft 44 kts 349°
2026-05-03 21:48 41.25564 -8.68308 239 ft 16 kts 21°
2026-05-03 21:48 41.25602 -8.68180 239 ft 11 kts 82°
2026-05-03 21:49 41.25594 -8.68127 239 ft 4 kts 115°
2026-05-03 21:49 41.25583 -8.68111 239 ft 2 kts 137°
2026-05-03 21:49 41.25574 -8.68103 239 ft 2 kts 149°
2026-05-03 21:49 41.25563 -8.68097 239 ft 2 kts 158°
2026-05-03 21:50 41.25550 -8.68093 239 ft 2 kts 167°
2026-05-03 21:50 41.25535 -8.68089 239 ft 2 kts 169°
2026-05-03 21:50 41.25518 -8.68085 239 ft 3 kts 168°
2026-05-03 21:50 41.25500 -8.68079 239 ft 3 kts 166°
2026-05-03 21:51 41.25482 -8.68072 239 ft 3 kts 164°
2026-05-03 21:51 41.25461 -8.68064 239 ft 3 kts 164°
2026-05-03 21:51 41.25439 -8.68058 239 ft 3 kts 169°
2026-05-03 21:51 41.25418 -8.68052 239 ft 3 kts 168°
2026-05-03 21:52 41.25396 -8.68045 239 ft 3 kts 167°
2026-05-03 21:52 41.25374 -8.68039 239 ft 3 kts 169°
2026-05-03 21:52 41.25350 -8.68034 239 ft 4 kts 170°
2026-05-03 21:52 41.25320 -8.68026 239 ft 4 kts 170°
2026-05-03 21:53 41.25289 -8.68018 239 ft 5 kts 168°
2026-05-03 21:53 41.25251 -8.68007 239 ft 10 kts 168°
2026-05-03 21:53 41.25172 -8.67987 239 ft 12 kts 170°
2026-05-03 21:53 41.25092 -8.67967 239 ft 12 kts 168°
2026-05-03 21:54 41.25012 -8.67946 239 ft 12 kts 169°
2026-05-03 21:54 41.24932 -8.67926 239 ft 12 kts 167°
2026-05-03 21:54 41.24855 -8.67891 239 ft 12 kts 153°
2026-05-03 21:54 41.24783 -8.67838 239 ft 12 kts 157°
2026-05-03 21:55 41.24705 -8.67809 239 ft 12 kts 168°
2026-05-03 21:55 41.24625 -8.67789 239 ft 12 kts 169°
2026-05-03 21:55 41.24545 -8.67769 239 ft 12 kts 169°
2026-05-03 21:55 41.24464 -8.67748 239 ft 12 kts 168°
2026-05-03 21:56 41.24385 -8.67727 239 ft 12 kts 168°
2026-05-03 21:56 41.24308 -8.67693 239 ft 12 kts 148°
2026-05-03 21:56 41.24252 -8.67615 239 ft 12 kts 126°
2026-05-03 21:56 41.24203 -8.67531 239 ft 12 kts 134°
2026-05-03 21:57 41.24160 -8.67452 239 ft 10 kts 101°
2026-05-03 21:57 41.24159 -8.67441 239 ft 0 kts 98°
2026-05-03 21:57 41.24163 -8.67417 239 ft 4 kts 79°
2026-05-03 21:57 41.24167 -8.67385 239 ft 4 kts 79°
2026-05-03 21:58 41.24171 -8.67362 239 ft 1 kts 79°
2026-05-03 21:58 41.24172 -8.67357 239 ft 0 kts 79°